This demonstration page uses our WeatherBlox Daily Observations layout. Learn more.

Hourly Observations for August 9, 2020

Temp ( °F °C ) Dew Point ( °F °C ) Humidity (%) Winds ( mph kmh ) Pressure ( in mb ) Visibility ( mi km ) Precip ( " mm )
12:53 am 00:53 Clear 65 18.3 63 17.2 93 93 Calm 30.14 1021 8 12.87472 0 0
1:53 am 01:53 Clear 64 17.8 62 16.7 93 93 Calm 30.15 1021 7 11.26538 0 0
2:53 am 02:53 Clear 63 17.2 61 16.1 93 93 Calm 30.14 1021 8 12.87472 0 0
3:53 am 03:53 Clear with Mist and Fog 62 16.7 61 16.1 96 96 Calm 30.15 1021 6 9.65604 0 0
4:53 am 04:53 Clear with Mist and Fog 61 16.1 60 15.6 97 97 Calm 30.15 1021 4 6.43736 0 0
5:53 am 05:53 Clear with Mist and Fog 61 16.1 59 15 93 93 Calm 30.15 1021 4 6.43736 0 0
6:32 am 06:32 Clear with Mist and Fog 61 16.1 59 15 93 93 Calm 30.15 1021 2 3.21868 0 0
6:41 am 06:41 Clear with Mist and Fog 61 16.1 59 15 93 93 Calm 30.15 1021 5 8.0467 0 0
6:53 am 06:53 Sunny with Mist and Fog 60 15.6 59 15 96 96 Calm 30.16 1021 4 6.43736 0 0
7:53 am 07:53 Sunny with Mist and Fog 65 18.3 63 17.2 93 93 Calm 30.16 1022 6 9.65604 0 0
8:53 am 08:53 Sunny 71 21.7 66 18.9 84 84 Calm 30.16 1022 7 11.26538 0 0
9:53 am 09:53 Sunny 77 25 68 20 74 74 Calm 30.16 1021 9 14.48406 0 0
10:53 am 10:53 Sunny 83 28.3 68 20 61 61 VRB 3 6 30.16 1021 10 16.0934 0 0
11:53 am 11:53 Sunny 84 28.9 67 19.4 57 57 Calm 30.15 1021 10 16.0934 0 0
12:53 pm 12:53 Sunny 86 30 67 19.4 53 53 VRB 3 6 30.13 1020 10 16.0934 0 0
1:53 pm 13:53 Sunny 85 29.4 68 20 57 57 VRB 6 9 30.12 1020 10 16.0934 0 0
2:53 pm 14:53 Sunny 87 30.6 70 21.1 57 57 VRB 6 9 30.11 1020 10 16.0934 0 0
3:53 pm 15:53 Sunny 88 31.1 68 20 52 52 VRB 3 6 30.1 1019 10 16.0934 0 0
4:53 pm 16:53 Sunny 88 31.1 68 20 52 52 VRB 5 7 30.09 1019 10 16.0934 0 0
5:53 pm 17:53 Sunny 87 30.6 69 20.6 55 55 Calm 30.06 1018 10 16.0934 0 0
6:53 pm 18:53 Sunny 86 30 70 21.1 59 59 NW 5 7 30.04 1017 10 16.0934 0 0
7:53 pm 19:53 Sunny 78 25.6 71 21.7 79 79 Calm 30.04 1017 10 16.0934 0 0
8:53 pm 20:53 Clear 74 23.3 69 20.6 85 85 Calm 30.04 1017 10 16.0934 0 0
9:53 pm 21:53 Clear 72 22.2 68 20 87 87 Calm 30.07 1018 10 16.0934 0 0
10:53 pm 22:53 Clear 70 21.1 68 20 93 93 Calm 30.07 1018 10 16.0934 0 0
11:53 pm 23:53 Clear 69 20.6 67 19.4 93 93 Calm 30.07 1018 10 16.0934 0 0

Powered by AerisWeather